RH
15 18 22 24 22 24 27 53 40 25 17 22 20 16 29 96 82 96 98 91 100 98 100 100 100 98 62 30 50 59 61 60 40 18 48 63 55 49 52 83 99 93 86 92 71 47 40
16 20 24 25 23 24 27 48 27 21 26 19 18 16 76 100 88 98 95 100 78 76 70 69 100 100 94 40 30 50 65 61 52 34 28 75 58 58 52 54 84 99 95 95 90 57 51
18 22 24 26 21 27 30 57 26 20 18 16 12 18 36 100 97 100 100 86 76 100 77 60 59 100 100 61 29 30 77 63 43 47 28 81 76 74 69 58 64 70 93 99 97 80 60
17 21 25 24 23 25 40 38 41 21 12 12 14 19 32 100 98 60 89 85 82 85 74 78 74 78 88 64 34 43 78 81 44 50 35 80 92 89 84 82 60 57 84 95 98 97 71
17 22 27 25 25 28 46 27 48 22 13 12 14 19 31 96 88 64 66 70 79 80 81 93 94 100 100 67 41 38 71 79 50 59 33 55 90 97 88 88 76 53 62 93 97 97 90
19 24 31 29 20 28 47 26 54 24 13 14 14 17 17 99 100 92 85 86 96 97 87 87 100 91 92 62 42 36 61 58 61 64 47 42 60 90 85 90 85 62 61 80 97 98 92
20 23 30 31 16 34 53 28 57 18 19 17 16 18 18 28 100 100 83 100 100 90 69 90 100 100 100 52 55 72 64 54 55 99 60 65 73 68 66 56 83 77 68 78 99 90 94
19 26 30 23 12 34 54 25 54 16 22 21 24 29 29 32 32 41 57 72 65 84 68 77 100 95 55 68 59 77 59 43 52 36 46 79 83 96 99 74 80 78 70 76 96 88 96
21 27 28 15 10 26 55 23 44 18 22 24 31 52 65 36 49 91 69 98 100 100 88 98 88 67 77 76 46 39 40 44 60 57 62 84 95 100 99 88 69 75 71 73 97 91 93
25 26 24 7 8 26 56 22 37 20 22 32 35 40 71 59 60 94 100 96 89 89 97 99 98 100 99 100 81 32 63 83 87 74 97 100 100 100 100 100 92 76 72 67 93 94 65
23 20 14 4 5 20 49 22 34 25 27 49 69 62 46 55 50 60 100 100 98 98 92 100 100 100 100 69 98 99 100 100 100 98 97 92 100 99 100 100 83 67 71 49 82 98 85
14 16 10 2 4 14 29 27 31 35 22 45 56 60 60 40 39 49 55 66 69 85 100 89 89 100 100 100 95 99 100 100 98 100 100 99 100 99 98 98 78 64 50 36 67 97 94
10 11 7 2 2 8 18 70 27 36 19 32 39 51 57 41 36 47 50 44 39 47 62 60 100 98 100 88 92 100 100 100 99 100 100 100 99 99 99 100 74 51 44 41 54 89 88
8 6 4 2 2 3 14 78 18 27 19 26 35 31 44 51 26 24 32 40 20 22 26 37 45 73 74 87 67 99 100 100 100 100 100 100 99 100 98 95 67 50 46 44 41 54 55
5 4 3 2 2 2 17 25 23 26 18 22 29 24 30 30 43 16 22 26 34 46 53 58 68 90 83 78 88 91 93 99 100 100 100 99 96 100 100 100 95 61 45 43 40 38 39
3 4 3 3 2 2 2 18 71 26 20 20 22 22 21 25 35 40 28 28 41 39 40 58 61 70 83 89 94 86 78 88 93 97 100 100 100 100 99 100 100 93 78 64 51 48 41
3 3 3 3 2 2 2 7 27 20 33 16 18 24 18 21 28 39 48 40 44 37 26 31 31 33 56 74 85 92 77 69 80 81 91 100 100 99 100 96 100 94 99 85 86 80 77
4 3 3 3 3 2 2 2 8 62 22 30 22 22 20 22 23 29 33 40 36 33 34 30 29 24 24 38 73 76 78 82 70 87 92 92 98 98 100 100 100 100 100 100 100 100 98
4 3 3 3 4 2 2 2 4 24 19 32 31 32 34 36 34 32 26 35 36 37 34 24 21 19 18 20 27 45 53 69 89 81 78 86 89 97 98 95 95 99 100 99 94 88 84
4 4 4 4 5 3 2 2 3 5 57 18 35 36 41 49 53 40 26 19 25 27 27 18 14 13 12 18 24 36 42 45 53 77 89 94 94 95 89 97 84 87 84 81 76 62 48
4 4 4 5 5 4 3 2 2 4 14 28 26 40 38 43 43 50 48 28 20 14 19 29 29 27 16 18 31 41 44 42 42 40 52 74 82 81 58 61 77 72 68 63 68 54 47
4 3 4 4 5 6 4 3 2 7 6 74 15 22 34 38 41 46 49 57 54 47 43 42 43 37 39 27 35 52 49 39 37 30 29 33 64 66 42 45 44 45 44 41 41 51 41
4 3 4 3 5 7 6 4 4 12 8 17 81 15 21 28 36 42 42 53 55 52 57 66 70 63 52 39 41 50 66 67 34 30 29 27 32 50 44 46 41 37 36 41 48 46 35
4 3 4 4 6 9 7 5 5 20 19 12 58 63 16 16 25 33 37 42 44 40 36 34 32 64 73 69 66 61 55 55 30 27 29 29 36 36 38 51 33 33 34 38 39 37 34
4 3 3 4 7 12 8 9 7 28 27 26 16 85 54 16 15 18 27 32 38 39 39 36 30 28 29 67 68 59 49 37 30 26 28 30 31 31 30 30 38 41 43 40 37 36 33
4 3 3 4 8 15 11 8 11 24 61 42 43 34 96 35 17 15 14 15 15 19 23 28 29 28 27 26 27 35 51 66 47 39 29 28 29 31 33 38 45 44 42 38 34 37 50
3 3 3 8 24 37 13 9 15 20 33 56 57 78 92 97 27 18 16 17 20 18 18 22 20 23 24 22 21 24 30 32 46 62 63 48 36 32 31 36 42 44 41 37 35 43 57
4 3 4 17 64 71 21 15 35 46 40 40 50 83 97 100 80 28 22 20 20 21 22 22 23 21 22 23 20 20 24 23 23 25 33 54 62 56 49 42 46 44 41 38 39 53 68
4 4 12 50 96 84 68 28 54 66 78 59 67 53 99 100 100 61 36 35 40 39 35 31 30 29 27 26 25 23 22 20 20 19 23 27 35 49 60 58 53 49 44 38 36 42 77
Wind_Speed
58 62 66 65 68 60 56 57 62 65 71 73 72 69 53 36 32 23 20 18 15 18 21 30 35 37 55 74 73 66 63 60 54 50 51 54 54 53 51 52 53 52 54 56 54 41 40
58 63 64 64 69 61 58 61 60 66 69 71 74 66 37 32 23 23 21 18 14 13 17 24 29 35 36 58 69 71 60 59 55 50 49 53 51 50 52 51 51 51 57 55 53 41 43
58 64 66 62 66 62 58 58 59 67 69 70 71 62 39 25 20 18 16 14 15 8 10 14 29 33 30 41 58 68 56 53 54 51 47 51 53 51 48 49 52 52 55 50 55 45 44
60 65 67 63 70 61 56 56 59 64 67 69 69 59 39 18 21 17 14 13 16 13 11 10 21 32 28 39 47 52 53 46 51 45 47 43 55 52 49 47 49 50 52 54 49 46 45
61 63 66 62 71 59 56 54 57 60 62 66 66 57 38 16 12 14 11 6 10 10 10 4 15 24 35 37 37 46 49 46 43 45 43 43 46 57 53 51 50 50 48 51 46 47 44
61 62 64 60 67 56 53 50 56 53 60 64 65 58 42 18 14 13 10 10 10 11 8 4 14 20 33 41 40 44 46 44 37 36 40 43 42 46 58 56 52 49 47 47 47 47 45
60 63 63 65 61 54 49 47 54 49 56 60 63 57 51 29 16 15 15 12 12 9 4 14 22 30 40 46 47 43 42 45 40 34 35 39 40 37 41 51 52 49 46 46 44 45 51
61 63 63 63 56 51 47 44 52 47 50 53 57 58 57 46 33 25 20 16 14 16 18 23 29 42 45 50 49 47 40 43 40 42 37 35 33 38 45 55 55 51 48 48 41 39 40
60 64 61 58 51 47 43 40 47 44 43 46 50 53 60 54 53 52 52 47 43 37 33 41 41 49 52 47 51 50 46 39 37 37 34 32 31 33 46 51 54 53 47 46 41 35 37
62 65 61 51 46 42 38 36 42 39 38 41 44 45 50 46 43 48 53 44 40 40 38 38 41 42 38 31 34 42 42 33 36 33 29 29 33 30 35 44 52 53 49 45 41 36 36
65 65 60 45 41 38 35 30 37 34 32 36 42 41 44 39 34 34 34 34 33 39 40 20 30 33 30 38 40 33 17 25 28 26 26 28 36 36 38 36 49 51 47 43 40 39 37
65 64 54 41 37 35 32 24 29 30 25 27 35 41 44 37 33 33 34 30 27 26 26 27 44 35 36 30 26 23 7 21 25 22 31 29 27 30 37 41 45 47 44 40 39 38 38
65 65 54 38 35 33 28 23 22 24 21 16 27 32 33 32 27 23 27 22 26 32 33 38 37 36 31 25 14 15 18 22 22 24 28 27 24 27 30 39 44 42 40 38 38 37 36
66 63 57 40 33 33 26 22 17 17 16 13 17 24 27 27 24 19 18 18 27 31 30 28 25 16 8 11 14 14 10 18 18 15 25 23 26 26 27 36 35 36 36 37 37 38 38
64 62 58 46 34 35 24 19 13 12 9 9 9 17 17 20 21 16 18 16 27 25 18 13 12 13 11 14 12 10 8 15 15 19 29 19 29 24 23 23 36 36 35 36 36 39 40
57 63 59 47 38 31 28 17 12 9 4 7 5 10 12 10 14 17 14 16 20 14 12 12 16 15 12 13 12 8 8 13 12 13 18 23 25 25 22 24 25 30 32 37 38 37 39
53 60 60 53 46 31 31 20 13 9 7 1 2 3 5 7 8 11 14 7 11 2 4 7 7 8 9 9 11 13 10 11 15 16 18 21 24 27 21 26 26 21 30 25 31 33 32
53 57 62 59 52 29 27 27 17 13 11 6 3 2 2 5 5 7 8 8 7 6 5 6 6 5 4 4 8 11 10 11 16 21 20 25 23 29 22 27 25 26 25 23 24 26 23
51 57 60 60 58 30 29 27 20 16 14 13 8 6 4 4 3 3 6 10 11 10 7 6 7 8 8 9 10 10 9 10 11 18 23 22 19 23 26 26 27 27 27 25 21 20 21
51 54 60 63 56 30 29 26 26 19 19 18 14 10 6 4 3 5 7 8 10 12 10 8 9 9 9 10 11 11 10 10 10 9 14 21 20 18 19 23 25 25 24 25 25 22 21
52 52 57 62 55 30 29 25 27 18 21 21 22 16 13 9 6 3 6 8 10 13 12 10 9 8 9 10 11 10 10 10 11 13 13 13 17 16 14 18 22 23 25 23 23 23 25
52 53 57 61 53 32 25 25 26 24 21 25 23 24 21 17 13 9 6 6 9 10 12 13 12 12 11 12 12 12 12 11 12 12 14 15 15 16 15 17 19 20 20 20 22 24 20
50 55 59 59 54 40 24 24 23 26 20 27 27 25 24 23 20 16 12 9 7 4 1 3 9 11 12 12 13 14 13 14 13 14 14 14 15 16 15 15 16 16 15 17 18 20 23
53 54 57 60 58 38 19 24 25 28 18 25 31 30 27 26 26 24 22 18 15 12 9 6 4 4 7 11 12 11 12 14 14 14 14 14 15 15 15 17 15 13 15 16 18 20 19
54 56 57 60 58 37 22 23 27 27 21 23 30 34 31 28 26 27 27 26 24 21 18 15 12 9 7 6 10 10 11 12 13 14 15 16 16 16 17 18 15 14 15 15 18 18 19
57 55 58 63 58 27 26 23 27 29 24 21 25 33 34 31 29 26 23 23 25 26 25 23 20 17 15 13 12 12 12 16 14 13 15 17 18 17 17 17 17 14 16 16 17 17 18
51 53 60 59 46 26 25 28 31 32 28 22 26 25 34 35 32 30 27 25 23 21 20 19 17 16 16 15 16 15 14 14 14 17 18 17 19 20 21 21 19 16 17 17 18 16 18
54 55 60 50 34 33 27 30 32 29 26 24 25 28 29 31 36 32 29 26 26 25 24 21 22 19 19 20 19 17 18 17 16 15 17 22 24 22 23 23 21 20 19 19 17 18 18
50 54 52 39 34 39 38 31 30 28 27 25 24 28 28 32 33 36 32 29 27 25 24 24 23 24 26 24 23 25 23 23 24 22 20 20 22 23 28 27 26 24 23 21 21 20 19
Wind_Direction
341 345 350 352 350 343 341 342 336 336 334 334 338 340 336 320 325 303 299 296 281 267 246 232 225 221 226 216 218 217 217 218 220 217 216 214 216 215 217 222 217 216 223 226 223 216 212
340 345 351 354 349 344 346 346 344 339 340 338 342 344 330 313 323 301 299 296 284 267 257 242 220 213 214 218 213 215 215 217 216 215 215 213 213 213 213 215 223 216 223 224 222 216 212
339 346 350 352 351 346 348 347 344 343 341 343 348 347 341 315 320 310 289 287 252 304 262 271 228 206 205 203 207 211 210 213 212 213 212 211 210 211 211 213 219 223 224 221 222 219 212
340 344 349 351 353 347 351 349 351 344 347 350 352 350 349 316 321 325 311 280 249 281 296 282 205 207 192 187 197 199 203 204 209 210 210 212 212 211 210 214 216 224 228 220 220 216 215
339 343 348 351 351 348 351 355 353 348 352 356 357 357 355 334 333 353 337 304 270 283 297 263 198 191 180 175 178 187 194 197 201 209 207 210 214 211 211 214 216 218 227 226 223 214 216
339 344 347 351 350 349 350 359 355 353 356 0 4 4 5 347 339 333 329 314 303 289 290 202 170 179 169 165 165 173 183 188 191 199 208 211 216 218 212 214 219 222 227 232 225 217 215
340 343 346 348 349 349 352 1 357 357 0 6 15 16 20 11 351 347 344 321 308 287 251 161 147 154 152 156 157 166 174 185 190 193 203 210 216 217 224 216 217 218 220 232 223 223 216
340 341 346 348 348 349 353 3 1 1 8 12 25 32 34 34 44 51 53 60 87 93 122 141 139 139 144 148 151 159 166 181 196 201 208 215 215 213 208 209 214 219 220 228 218 220 222
339 341 347 348 348 349 354 4 4 6 16 20 32 38 38 46 65 68 72 74 75 87 110 124 126 134 137 141 150 163 173 179 191 196 208 208 210 206 209 210 213 216 216 223 219 221 227
338 340 344 348 346 349 356 4 6 13 23 30 36 38 37 45 64 69 79 76 85 94 103 113 125 132 136 142 149 166 174 186 193 198 200 207 205 206 210 210 208 211 212 217 222 213 224
337 341 345 347 345 348 355 6 7 19 31 39 40 39 40 48 59 76 71 68 87 99 104 94 134 116 132 151 149 158 165 170 186 187 191 203 204 207 211 207 206 210 211 214 217 221 219
337 341 347 347 342 344 353 4 9 15 29 38 44 44 48 53 74 64 54 61 102 115 98 122 139 123 132 158 164 152 147 172 173 175 189 205 199 206 207 208 206 207 212 214 216 221 221
335 338 345 349 343 340 351 354 5 15 31 30 39 48 50 57 64 48 47 78 106 111 119 135 140 147 140 136 161 137 97 165 163 189 193 204 206 204 212 208 208 208 210 214 216 224 227
333 338 345 353 346 340 342 348 353 15 37 42 26 41 50 53 55 58 70 100 111 109 117 130 132 134 164 157 171 152 123 132 174 179 190 200 199 197 222 210 210 212 215 217 219 223 229
332 337 343 354 352 342 332 338 338 1 29 54 47 48 58 46 62 69 80 118 105 108 106 103 112 123 137 149 140 150 184 166 139 145 170 186 191 194 208 206 206 211 219 222 226 228 232
330 332 341 349 350 343 331 321 321 318 1 45 127 36 50 64 65 85 93 131 117 97 94 113 124 118 138 142 144 153 177 198 205 173 161 186 196 204 188 196 207 205 213 220 225 230 234
329 328 335 341 345 348 329 318 306 276 290 21 129 285 35 56 96 104 98 133 165 124 105 128 129 145 150 174 180 162 173 196 193 201 196 187 198 201 202 206 212 218 206 218 226 230 234
326 326 330 335 341 343 333 327 301 277 257 249 215 213 95 79 84 146 150 147 187 211 191 188 200 204 221 210 211 198 194 197 202 205 201 209 205 203 203 204 205 210 215 217 217 217 224
325 325 326 331 337 342 337 324 307 274 251 245 217 205 220 232 205 188 176 163 177 193 195 195 203 214 227 228 223 223 221 207 204 212 217 217 221 218 218 217 215 215 214 224 234 231 233
323 324 323 326 334 336 333 324 314 279 251 236 225 203 208 225 237 205 201 202 198 201 210 222 215 220 230 227 220 223 228 229 221 211 208 215 221 229 236 229 229 229 232 234 237 237 239
316 321 320 324 329 329 324 326 311 291 257 237 230 220 208 216 232 241 219 205 209 211 213 220 223 226 228 222 224 234 236 226 220 219 220 218 214 210 228 232 232 234 235 237 241 232 231
317 319 319 322 325 327 321 314 306 309 256 241 233 228 225 225 225 223 233 241 233 233 239 241 240 232 231 224 227 229 230 231 231 229 230 228 222 224 230 227 226 227 232 233 227 225 226
316 316 317 319 321 326 315 306 299 307 264 243 235 229 226 229 225 219 216 212 201 194 206 277 256 243 237 233 230 238 234 233 237 236 240 239 231 230 231 231 225 219 221 218 218 218 222
313 312 312 313 316 319 307 297 290 298 291 250 236 232 230 229 228 227 224 221 222 229 238 248 283 290 253 237 232 226 230 236 239 238 238 236 229 234 224 229 230 217 218 217 223 226 229
312 312 311 311 314 320 296 296 288 294 300 269 242 234 231 228 230 229 232 230 230 235 242 244 246 256 263 251 240 243 241 239 241 240 236 234 234 241 236 235 232 230 233 233 231 232 231
312 311 308 307 311 306 299 290 288 288 297 276 258 237 231 229 229 228 232 236 235 238 242 244 245 248 251 255 250 249 250 248 245 243 242 240 239 238 235 233 234 234 242 242 240 239 238
314 307 305 309 312 303 297 288 285 292 292 282 258 244 232 232 229 228 229 236 237 237 237 237 241 242 245 246 249 252 249 249 250 247 248 244 241 241 239 240 244 245 247 246 243 242 239
311 306 308 312 299 292 303 288 293 300 300 283 261 242 235 234 231 229 227 229 235 238 239 241 245 246 248 249 252 247 248 251 252 250 247 248 248 247 245 245 245 249 249 250 247 245 240
302 302 303 305 295 293 299 287 298 304 307 284 262 250 237 230 228 230 229 228 231 235 239 239 246 246 251 254 257 258 254 253 252 252 256 253 251 250 251 252 252 251 251 250 249 250 245